User: anonymous   Login
Location: Mentone
(34.5413°N, 85.5351°W)
Time: 11:42:28
(UTC-06:00)
Language:

AO-Echo - Orbit

View from above orbital plane
View from above orbital plane
View from above satellite
View from above satellite

Ground track
Ground track

The orbit data is extracted from the following two-line orbital elements,

1 28375U 04025K   14324.80853298  .00000412  00000-0  13521-3 0  9951
2 28375 098.2701 266.5250 0082013 238.4952 120.8206 14.41503961546465
Epoch (UTC): 20 November 2014 19:24:17
Eccentricity: 0.0082013
inclination: 98.2701°
perigee height: 695 km
apogee height: 812 km
right ascension of ascending node: 266.5250°
argument of perigee: 238.4952°
revolutions per day: 14.41503961
mean anomaly at epoch: 120.8206°
orbit number at epoch: 54646

The dashed part of the orbit path shows where the satellite is in the earth's shadow,  

DLR